Aérodrome :
LOGIN :

S'inscrire | Disclaimer

   EN    FR    IT 

 










Légende :    VFR   VFR Marginal   IFR   IFR Intensif   IFR Très Intensif
Visi : 
Plafond : 
>= 8 km
>= 3000ft
5 à 8 km
1000 à 3000 ft
1500m à 5 km
500 à 1000 ft
800 à 1500m
200 à 500 ft
< 800m
< 200 ft
Symboles :   Orages  Brouillard  Fortes neiges  Fortes précipitations  Vent > 20 kt
SIGMETs :   Divers  Orages  Givrage  Turbulence  Onde Orograph.  Cendres Volcan.







- Altitude de l'aérodrome : 427 ft
- Code IATA : CIA


LIRA - Roma Ciampino

DERNIER METAR :
  • 161650Z 26011KT 210V290 CAVOK 30/11 Q1015

METARs EXPIRÉS :
  • 161620Z 26008KT 230V310 CAVOK 31/11 Q1015
  • 161550Z 25009KT 210V280 CAVOK 32/11 Q1015
  • 161520Z 26011KT 230V290 CAVOK 32/09 Q1016
  • 161450Z 27011KT 230V300 CAVOK 33/09 Q1015
  • 161420Z 26012KT CAVOK 33/06 Q1016

TAF TAF LIRA
Valide du 16 à 12h jusqu'au 17 à 12h UTC


161100Z 1612/1712 25012KT CAVOK
BECMG 1617/1619 VRB04KT
BECMG 1709/1711 27012KT
Pas de NOTAMs connus pour ce terrain.



MET'MAP, la Météo Aéronautique d'un coup d'oeil ! - Copyright ORBIFLY Décembre 2007 - Disclaimer

ORBIFLY MET'MAP TEAM :

Programmation & Développement : Alexandra Zaïnal
Conception & Développement : Baudouin d'Aumeries
Co-Programmation & Développement : Marc-Olivier Méhu
Soutien technique & logistique : Manuel Goepfert

Contact : metmap@orbifly.com




SOURCES & CREDITS :

   NOAA